Vorticity
7 5 7 11 8 4 11 11 14 14 13 7 10 11 11 8 11 4 9 5 9 10
4 8 15 10 -1 -0 -8 3 15 9 9 7 19 7 1 1 1 19 37 26 21 27
13 14 12 -3 1 16 -13 9 11 12 12 17 14 13 18 32 43 28 29 34 34 32
13 13 14 13 11 -3 12 13 16 17 18 22 32 37 29 31 24 20 17 16 9 14
8 7 7 1 11 12 12 16 19 25 30 28 25 29 21 14 13 11 11 9 10 12
5 3 7 13 11 14 17 23 29 29 25 20 14 8 10 15 17 16 14 14 14 14
12 11 10 13 14 14 28 27 28 23 16 9 10 13 11 8 9 9 9 8 7 7
9 11 14 13 16 31 23 24 19 12 9 13 10 10 10 10 12 13 14 13 12 10
13 15 11 17 24 22 19 20 10 11 10 10 10 8 11 13 16 17 18 19 19 20
14 10 15 17 27 12 19 12 10 9 11 9 8 12 18 18 17 18 17 17 18 18
10 12 15 24 13 17 15 11 8 11 8 8 14 17 19 17 18 17 14 15 16 18
11 17 26 15 14 17 11 9 10 9 7 14 22 19 20 21 21 21 20 21 19 16
18 21 12 12 23 15 8 9 11 8 14 25 20 16 14 17 17 20 25 25 21 18
17 13 14 31 13 10 7 12 7 13 26 17 15 19 19 19 17 12 15 17 23 24
Height
5679 5670 5662 5653 5644 5635 5626 5618 5607 5598 5589 5580 5569 5562 5553 5546 5539 5533 5525 5520 5513 5507
5665 5656 5646 5636 5628 5619 5608 5596 5585 5573 5564 5555 5545 5535 5525 5517 5509 5502 5497 5491 5485 5480
5646 5636 5626 5618 5607 5595 5584 5573 5563 5550 5538 5530 5519 5509 5498 5489 5481 5475 5471 5466 5463 5459
5627 5617 5606 5595 5584 5572 5561 5548 5537 5524 5511 5502 5493 5482 5474 5468 5462 5458 5454 5451 5448 5446
5607 5596 5585 5573 5561 5549 5539 5525 5511 5497 5486 5477 5471 5464 5458 5453 5449 5444 5440 5437 5434 5432
5588 5575 5564 5552 5540 5527 5514 5501 5488 5477 5468 5460 5454 5450 5444 5438 5434 5429 5425 5421 5418 5416
5568 5556 5545 5532 5519 5506 5494 5481 5471 5463 5455 5448 5443 5436 5430 5424 5419 5415 5410 5407 5403 5401
5548 5535 5523 5511 5499 5486 5475 5465 5457 5449 5443 5436 5429 5423 5416 5409 5404 5398 5394 5390 5386 5384
5529 5516 5505 5493 5482 5472 5462 5453 5445 5437 5430 5422 5413 5408 5401 5393 5386 5380 5375 5371 5367 5364
5512 5501 5490 5479 5468 5458 5449 5441 5433 5425 5417 5409 5399 5393 5384 5376 5369 5363 5358 5353 5349 5346
5497 5485 5474 5463 5454 5445 5437 5430 5421 5413 5404 5395 5384 5376 5368 5360 5353 5348 5343 5337 5332 5328
5480 5471 5460 5451 5442 5434 5427 5419 5411 5401 5392 5381 5371 5360 5353 5345 5339 5334 5328 5323 5318 5314
5465 5457 5448 5439 5431 5424 5417 5409 5401 5391 5379 5368 5359 5349 5342 5333 5326 5322 5316 5310 5306 5303
5451 5442 5436 5429 5421 5415 5408 5399 5391 5380 5369 5358 5349 5341 5333 5325 5318 5312 5307 5301 5296 5293